User: anonymous
Location: Pine Mountain Observatory
(43.7910°N, 120.9377°W)
Time: 01:17:43
(UTC-07:00)
Language:

Cosmos 1867 - Orbit

View from above orbital plane
View from above orbital plane
View from above satellite
View from above satellite

Ground track
Ground track

The orbit data is extracted from the following two-line orbital elements,

1 18187U 87060A   14208.78842563 -.00000128  00000-0 -10419-4 0  1099
2 18187 065.0110 302.3289 0015253 262.0237 097.9117 14.31022419412979
Epoch (UTC): 27 July 2014 18:55:19
Eccentricity: 0.0015253
inclination: 65.0110°
perigee height: 777 km
apogee height: 799 km
right ascension of ascending node: 302.3289°
argument of perigee: 262.0237°
revolutions per day: 14.31022419
mean anomaly at epoch: 97.9117°
orbit number at epoch: 41297

The dashed part of the orbit path shows where the satellite is in the earth's shadow,  

DLR